Regional Weather Roundup
Issued by NWS Sterling, VA

Home | Current Version | Previous Version | Graphics & Text | Print | Product List | Glossary On
Versions: 1 2 3 4 5 6 7 8 9 10 11 12 13 14 15 16 17 18 19 20 21 22 23 24 25 26 27 28 29 30 31 32 33 34 35 36 37 38 39 40 41 42 43 44 45 46 47 48 49 50
000
ASUS41 KLWX 280710
RWRLWX

REGIONAL WEATHER ROUNDUP
NATIONAL WEATHER SERVICE BALTIMORE MD/WASHINGTON DC
300 AM EDT MON JUL 28 2014

Note: "FAIR" indicates few or no clouds below 12,000 feet
with no significant weather and/or obstructions to visibility.
 TC=TEMPERATURE CELSIUS

 * =Non NWS site. Station does not report precipitation (e.g. rain,
    snow, etc.), thunder, or fog.

DCZ001-MDZ009-015-VAZ040>042-051-053>054-280800-
WASHINGTON METRO
  /KDAA//-FT BELVOIR

CITY           SKY/WX    TMP DP  RH WIND       PRES   REMARKS
WASHINGTON NAT CLOUDY    78  71  79 W6        29.60F
DULLES         CLOUDY    69  65  86 CALM      29.62S
ANDREWS AFB    CLOUDY    77  73  86 SW8       29.60S
QUANTICO       CLOUDY    78  71  79 W7        29.61F
COLLEGE PARK*  CLOUDY    75  72  88 CALM      29.59F
LEESBURG*      CLOUDY    68  68 100 CALM      29.62F
MANASSAS*      CLOUDY    70  68  94 CALM      29.61F
GAITHERSBURG*  CLOUDY    70  66  88 NW5       29.64F

$$

MDZ006>007-011-014-280800-
BALTIMORE METRO

CITY           SKY/WX    TMP DP  RH WIND       PRES   REMARKS
BWI AIRPORT    CLOUDY    70  68  93 CALM      29.59F
MD SCIENCE CTR   N/A     72  67  84 MISG      29.59F
MARTIN STATE   MOCLDY    70  70 100 CALM      29.60F
ANNAPOLIS      MOCLDY    76  72  87 CALM      29.58F
FORT MEADE*    MOCLDY    72  70  94 CALM      29.61F

$$

MDZ012-015-019>023-280800-
MARYLAND EASTERN SHORE

CITY           SKY/WX    TMP DP  RH WIND       PRES   REMARKS
OCEAN CITY     PTCLDY    75  73  93 VRB5      29.61F
SALISBURY      NOT AVBL
BAY BRIDGE AP*   N/A     79  72  78 SW7       29.59F
CAMBRIDGE*     MOCLDY    79  70  73 SW6       29.59F
EASTON*        MOCLDY    77  77 100 CALM      29.63F

$$

MDZ017>025-280800-
SOUTHERN MARYLAND

CITY           SKY/WX    TMP DP  RH WIND       PRES   REMARKS
PATUXENT RIVER MOCLDY    78  71  79 SW13      29.59F
ST INIGOES     PTCLDY    78  70  76 SW13      29.60S
LEONARDTOWN*   PTCLDY    77  70  78 SW9       29.62S

$$

MDZ003>005-280800-
NORTH CENTRAL MARYLAND

CITY           SKY/WX    TMP DP  RH WIND       PRES   REMARKS
FREDERICK*     CLOUDY    66  66 100 CALM      29.64S
HAGERSTOWN APT MOCLDY    65  64  97 S3        29.62R
WESTMINSTER*   CLOUDY    66  64  94 W6        29.62R

$$

MDZ501>502-280800-
WESTERN MARYLAND

CITY           SKY/WX    TMP DP  RH WIND       PRES   REMARKS
OAKLAND*       CLOUDY    63 N/A N/A W10G17    29.74S
CUMBERLAND*    PTCLDY    68  66  94 S6        29.67S

$$

VAZ025>031-280800-
SHENANDOAH VALLEY

CITY           SKY/WX    TMP DP  RH WIND       PRES   REMARKS
WINCHESTER*    MOCLDY    66  64  94 CALM      29.64S
STAUNTON*      MOCLDY    76  60  57 W7        29.70R

$$

WVZ021-048>050-054>055-280800-
EASTERN WEST VIRGINIA PANHANDLE

CITY           SKY/WX    TMP DP  RH WIND       PRES   REMARKS
MARTINSBURG    FOG       68  65  90 S5        29.63F VSB 1/4
PETERSBURG*    LGT RAIN  69  62  80 CALM      29.69R

$$

VAZ036>039-050-280800-
CENTRAL FOOTHILLS

CITY           SKY/WX    TMP DP  RH WIND       PRES   REMARKS
CHARLOTTESVILL CLOUDY    77  64  64 VRB7      29.63F
ORANGE*        CLOUDY    73  70  88 S5        29.64F

$$

VAZ055>057-280800-
NORTH AND CENTRAL PIEDMONT

CITY           SKY/WX    TMP DP  RH WIND       PRES   REMARKS
FREDERICKSBRG* CLOUDY    78  73  84 SW7       29.60F
STAFFORD*      CLOUDY    76  76 100 SW3       29.65F

$$

NCZ024-NYZ072-PAZ021-071-VAZ022-071-280800-
OTHER REGIONAL OBSERVATIONS

CITY           SKY/WX    TMP DP  RH WIND       PRES   REMARKS
NEW YORK CITY  CLOUDY    74  72  93 VRB3      29.60S FOG
PHILADELPHIA   CLOUDY    70  66  87 E6        29.58F
PITTSBURGH     CLOUDY    64  62  93 W10       29.65R
ROANOKE        MOCLDY    74  64  71 W13G23    29.77F
RICHMOND       MOCLDY    79  71  76 SW12      29.64F
RALEIGH        CLOUDY    82  69  64 W13G21    29.77R

$$

ANZ530>537-280800-
MARINE OBSERVATIONS

STATION/POSITION TIME  TEMP    WIND        PRES
                       AIR SEA DIR/SP/G
                 (UTC) (F)     (DEG/KT/KT) (MB)
THOMAS PT LIGHT  0700   78 79  230/ 10/ 11 1002.4F
BALT KEY BRIDGE  0700           CALM  /  1 1001.5F
COVE POINT       0700   79     270/ 16/ 20 1001.9R
LEWISETTA        0700   78 80  240/ 12/ 16 1002.3R
SOLOMONS ISLAND  0700      80                N/A
PINEY POINT      0700          260/  7/  9   N/A

$$



USA.gov is the U.S. government's official web portal to all federal, state and local government web resources and services.